AirNav   Everest Fuels
 
 1103 users online  

3N6 Old Bridge Airport
Old Bridge, New Jersey, USA

GOING TO OLD BRIDGE?


FAA INFORMATION EFFECTIVE 22 APRIL 2021

Location

FAA Identifier: 3N6
Lat/Long: 40-19-47.5920N 074-20-48.4330W
40-19.793200N 074-20.807217W
40.3298867,-74.3467869
(estimated)
Elevation: 87 ft. / 27 m (estimated)
Variation: 13W (2010)
From city: 5 miles S of OLD BRIDGE, NJ
Time zone: UTC -4 (UTC -5 during Standard Time)
Zip code: 08831

Airport Operations

Airport use: Open to the public
Activation date: 02/1966
Control tower: no
ARTCC: NEW YORK CENTER
FSS: MILLVILLE FLIGHT SERVICE STATION
NOTAMs facility: MIV (NOTAM-D service available)
Attendance: DAYLIGHT HOURS
Wind indicator: lighted
Segmented circle: yes
Lights: ACTVT REIL RWY 6 & 24; MIRL RWY 06/24 - CTAF.
Beacon: white-green (lighted land airport)
ACTVT ROTG BCN - CTAF.

Airport Communications

CTAF/UNICOM: 123.075
MC GUIRE APPROACH: 126.475
MC GUIRE DEPARTURE: 126.475
WX AWOS-3PT at BLM (13 nm SE): 121.625 (732-938-3330)
WX AWOS-AV at N12 (18 nm SE): 122.8 (732-363-6471)
WX AWOS-3 at LDJ (18 nm N): 124.025 (908-862-7383)

Nearby radio navigation aids

VOR radial/distance  VOR name  Freq  Var
COLr288/8.6COLTS NECK VOR/DME115.4011W
RBVr052/10.2ROBBINSVILLE VORTAC113.8010W
GXUr043/22.4MC GUIRE VORTAC110.6012W
SBJr140/23.6SOLBERG VOR/DME112.9010W
ARDr090/26.1YARDLEY VOR/DME108.2010W
CRIr242/26.7CANARSIE VOR/DME112.3011W
CYNr017/31.0COYLE VORTAC113.4010W
JFKr247/31.9KENNEDY VOR/DME115.9012W
TEBr214/33.7TETERBORO VOR/DME108.4011W
LGAr231/34.9LA GUARDIA VOR/DME113.1012W
BWZr153/35.5BROADWAY VOR/DME114.2011W

 
NDB name  Hdg/Dist  Freq  Var  ID
LAKEHURST009/17.139611WNEL -. . .-..
CHATHAM184/24.925413WCAT -.-. .- -

Airport Services

Fuel available: 100LL
Parking: hangars and tiedowns
Airframe service: MAJOR
Powerplant service: MAJOR
Bottled oxygen: NONE
Bulk oxygen: NONE

Runway Information

Runway 6/24

Dimensions: 3594 x 50 ft. / 1095 x 15 m
Surface: asphalt, in fair condition
Runway edge lights: medium intensity
RUNWAY 6  RUNWAY 24
Latitude: 40-19.581100N40-20.004800N
Longitude: 074-21.077000W074-20.537000W
Elevation: 63.0 ft.86.0 ft.
Traffic pattern: leftright
Runway heading: 057 magnetic, 044 true237 magnetic, 224 true
Displaced threshold: 600 ft.400 ft.
Markings: nonprecision, in good conditionnonprecision, in good condition
Visual slope indicator: 2-light PAPI on left (4.00 degrees glide path)2-light PAPI on right (4.00 degrees glide path)
Runway end identifier lights: yesyes
Touchdown point: yes, no lightsyes, no lights
Obstructions: 80 ft. tree, 280 ft. from runway, 200 ft. right of centerline, 1:1 slope to clear
16 FT HNGR 53 FT FROM RWY END 200 FT L OF CNTRLN; 25 FT TREELINE 125 FT FROM RWY END ACRS CNTRLN.
40 ft. tree, 400 ft. from runway, 135 ft. left of centerline, 5:1 slope to clear
APCH SLOPE 20:1 TO DSPLCD THLD.

Airport Ownership and Management from official FAA records

Ownership: Privately-owned
Owner: MADISON INC.
182 PENSION RD
ENGLISHTOWN, NJ 07726
Phone 732-446-0303
Manager: PAUL CERNIGLIA
182 PENSION RD
ENGLISHTOWN, NJ 07726
Phone 732-718-0444

Airport Operational Statistics

Aircraft based on the field: 97
Single engine airplanes: 90
Multi engine airplanes: 6
Helicopters: 1
    
Aircraft operations: avg 40/day *
69% local general aviation
31% transient general aviation
* for 12-month period ending 30 April 2019

Additional Remarks

NO TOUCH & GO.
GCO AVBL ON FREQ 121.725 THRU MIV RADIO.
DRAG STRIP PARK & TREES E/W OF ARPT & INVOF APCH END RWY 6/24.
FOR CD USE GCO 121.725, IF UNABLE CTC MC GUIRE APCH AT 609-754-2767.
DEER & BIRDS ON & INVOF ARPT.
TWYS POOR COND, 2 IN CRACKS, 3 TO 4 IN DEEP, MNLY NR TWY HOLD SHRT LINES. TWY SFCS UNEVEN, BUMPY, WI SOME VEGETATION. ALL TWY MARKINGS FADED.

Instrument Procedures

NOTE: All procedures below are presented as PDF files. If you need a reader for these files, you should download the free Adobe Reader.

NOT FOR NAVIGATION. Please procure official charts for flight.
FAA instrument procedures published for use from 22 April 2021 at 0901Z to 20 May 2021 at 0900z.

 
IAPs - Instrument Approach Procedures
RNAV (GPS) RWY 06   download (209KB)
RNAV (GPS) RWY 24   download (207KB)
VOR RWY 24   download (234KB)
NOTE: Special Take-Off Minimums/Departure Procedures apply   download (150KB)

Other nearby airports with instrument procedures:

KBLM - Monmouth Executive Airport (13 nm SE)
N87 - Trenton-Robbinsville Airport (14 nm SW)
39N - Princeton Airport (15 nm W)
47N - Central Jersey Regional Airport (16 nm NW)
N12 - Lakewood Airport (18 nm SE)
KNEL - Lakehurst Maxfield Field Airport (18 nm S)
KLDJ - Linden Airport (18 nm N)
 
Loc | Ops | Rwys | IFR | FBO | Links
Com | Nav | Svcs | Stats | Notes
Area around 3N6 (Old Bridge Airport)
 
Road maps at: MapQuest Bing Google
 
Aerial photo
WARNING: Photo may not be current or correct
Aerial photo of 3N6 (Old Bridge Airport)
Photo by Coleen Abrams
Photo taken 30-Sep-2007

Do you have a better or more recent aerial photo of Old Bridge Airport that you would like to share? If so, please send us your photo.

 
Sectional chart

 
Airport distance calculator
Flying to Old Bridge Airport? Find the distance to fly.

From to 3N6

Sunrise and sunset
Times for 11-May-2021
 Local
(UTC-4)
 Zulu
(UTC)
Morning civil twilight05:1609:16
Sunrise05:4609:46
Sunset20:0100:01
Evening civil twilight20:3200:32

Current date and time
Zulu (UTC)  12-May-2021 01:42:49
Local (UTC-4)  11-May-2021 21:42:49
 
METAR
KBLM 
14nm SE 
AWOS-3 121.625 732-938-3330
120056Z AUTO 31006KT 10SM BKN070 BKN090 13/03 A3006 RMK AO2 SLP177 T01330033 PNO $
KLDJ 
18nm N 
120035Z AUTO 33007KT 10SM SCT070 BKN095 14/00 A3004 RMK AO2 T01410004
KNEL 
19nm S 
120100Z VRB04KT 10SM SCT075 BKN110 18/04 A3004 RMK AO2 SLP172 T01830039 $
KTTN 
22nm W 
ASOS 133.70 609-538-8690
120053Z 30003KT 10SM FEW070 FEW090 12/03 A3004 RMK AO2 RAB31E43 SLP168 P0000 T01220033
KWRI 
22nm SW 
120056Z AUTO 29004KT 10SM FEW110 14/03 A3005 RMK AO2 SLP176 T01370026
KSMQ 
23nm NW 
ASOS 120.60 908-722-2139
120053Z AUTO 00000KT 10SM FEW070 11/03 A3004 RMK AO2 SLP174 T01060033
KEWR 
23nm N 
120051Z 30008KT 10SM FEW070 BKN110 BKN250 14/01 A3004 RMK AO2 SLP170 T01440011
KMJX 
24nm S 
AWOS-3 119.875 732-244-4450
120056Z AUTO 28005KT 10SM BKN070 OVC110 14/03 A3006 RMK AO2 SLP182 T01390028
KJRB 
27nm NE 
120056Z AUTO VRB03KT 10SM FEW100 14/03 A3005 RMK AO2 SLP175 T01440028
KMMU 
27nm N 
120045Z 28006KT 10SM SCT080 SCT120 BKN250 12/05 A3005
TAF
KTTN 
22nm W 
112047Z 1121/1218 28012G20KT P6SM VCSH BKN090 FM120000 33012G18KT P6SM BKN200 FM120100 33008KT P6SM SKC FM120600 30007KT P6SM SKC FM121000 33009KT P6SM SKC FM121300 34012G18KT P6SM SKC
KWRI 
22nm SW 
112303Z 1123/1224 28012G18KT 9999 BKN110 QNH3001INS TEMPO 1123/1124 29015G25KT 9000 -SHRA BKN070 BECMG 1200/1201 30008KT 9999 FEW060 SCT250 QNH3004INS BECMG 1212/1213 30010G15KT 9999 FEW070 SCT220 QNH3016INS TX17/1218Z TN05/1210Z
KEWR 
23nm N 
112040Z 1121/1224 31013G18KT P6SM VCSH BKN060 FM120100 30012KT P6SM SCT060 SCT250 FM121400 32012G19KT P6SM BKN050 FM121900 29014KT P6SM SCT250
NOTAMs
Click for the latest NOTAMs
NOTAMs are issued by the DoD/FAA and will open in a separate window not controlled by AirNav.

 

 
 

FBO, Fuel Providers, and Aircraft Ground Support

  
 Business Name 
 
 Contact 
 
 Services / Description 
 
Fuel Prices
 
Comments
  
Old Bridge Airport 732-446-0303
[web site]
[email]
Airport management, Aviation fuel, Aircraft parking (ramp or tiedown), Hangar leasing / sales, Pilots lounge / snooze room, Restrooms

More info about Old Bridge Airport
Phillips 66
100LL
AS $5.05 
 Updated 26-Apr-2021
 
   4 read write
AS=Assisted/Self Service
Update Fuel Prices
 

Aviation Businesses, Services, and Facilities

  
 Business Name 
 
 Contact 
 
 Services / Description 
 
Distance
 
Comments
  
 Old Bridge Flight School
732-483-4596
[web site]
[email]
Flight training, Aircraft rental, Aerial tours / aerial sightseeing, Aerial photography, Pilot supplies, Pilots lounge / snooze room, Public telephone, Computerized weather, ...

More info about Old Bridge Flight School
on airport  
   write
 

Would you like to see your business listed on this page?

 If your business provides an interesting product or service to pilots, flight crews, aircraft, or users of the Old Bridge Airport, you should consider listing it here.  To start the listing process, click on the button below
 
Add a business
 

Other Pages about Old Bridge Airport

oldbridgeairport.com
 
Update a link
 
Copyright © AirNav, LLC. All rights reserved. Privacy Policy  Contact